Miscellaneous Local Product
Issued by NWS North Platte, NE

Home | Current Version | Previous Version | Text Only | Print | Product List | Glossary On
Versions: 1 2 3 4 5 6 7 8 9 10 11 12 13 14 15 16 17 18 19 20 21 22 23 24 25 26 27 28 29 30 31 32 33 34 35 36 37 38 39 40 41 42 43 44 45 46 47 48 49 50
000
AXUS43 KLBF 311610
MISLBF


WESTERN AND NORTH CENTRAL NEBRASKA HOURLY WEATHER ROUNDUP
NATIONAL WEATHER SERVICE NORTH PLATTE NE
1000 AM CST SAT JAN 31 2015

***STATIONS NOT REPORTING VARIABLES SUCH AS SKY/WEATHER OR
PRESSURE ARE PROVIDED BY THE NEBRASKA DEPARTMENT OF
ROADS...RAWS...AND APRS NETWORKS...AND ARE NOT UNDER
NATIONAL WEATHER SERVICE QUALITY CONTROL***

...OBSERVATIONS IN AND NEAR THE EASTERN PANHANDLE OF NEBRASKA...

CITY           SKY/WX    TMP DP  RH WIND       PRES   REMARKS
PINE RIDGE     CLOUDY    30  24  78 E10       29.98F WCI  21
CHADRON        CLOUDY    29  24  82 CALM      29.98F
ALLIANCE       CLOUDY    32  27  81 N8        29.93S WCI  25
SIDNEY         LGT SNOW  31  29  92 N7        29.92S FOG     WCI  24
WHITECLAY        N/A     28  23  80 N5          N/A  WCI  23
CRESCENT LAKE    N/A     32  31  96 CALM        N/A
LISCO            N/A     33  31  93 W5          N/A  WCI  29
LEWELLEN         N/A     32  30  93 CALM        N/A
$$

...OBSERVATIONS IN NORTH CENTRAL NEBRASKA...

CITY           SKY/WX    TMP DP  RH WIND       PRES   REMARKS
VALENTINE      CLOUDY    28  25  88 NE15      30.02S WCI  16
THEDFORD       LGT RAIN  35  34  98 SE3       29.98R VSB 1/4
AINSWORTH      CLOUDY    30  28  90 NE12      30.01S WCI  21
O`NEILL        CLOUDY    31  29  93 N7        30.04F WCI  24
ORD            CLOUDY    34  30  85 SE6       30.01F WCI  29
BROKEN BOW     CLOUDY    34  31  88 SE7       29.99S WCI  28
BROWNLEE         N/A     32  32  98 NE8         N/A  WCI  25
VALENTINE NWR    N/A     31  32 100 NE6         N/A  WCI  25
SPRINGVIEW       N/A     30  26  86 NE5         N/A  WCI  25
BREWSTER         N/A     36  34  92 CALM        N/A
ROSE             N/A     36  36  99 CALM        N/A
NEWPORT          N/A     32  32 100 NE12        N/A  WCI  23
SARGENT          N/A     34  30  86 S3          N/A
COMSTOCK         N/A     37  35  94 S8          N/A  WCI  30
CHAMBERS         N/A     36  33  88 CALM        N/A
EWING            N/A     36  34  92 S3          N/A
$$

...OBSERVATIONS IN SOUTHWEST NEBRASKA AND FAR NORTHEAST COLORADO...

CITY           SKY/WX    TMP DP  RH WIND       PRES   REMARKS
WRAY           FOG      N/A N/A N/A N3        29.92R VSB 1/2
IMPERIAL       FOG       33  31  92 E9        29.92F VSB 1/4 WCI  25
OGALLALA       FOG       33  33 100 CALM      29.94F VSB 1/2
NORTH PLATTE   CLOUDY    33  31  92 SE5       29.97S WCI  29
MCCOOK         FOG       34  33  96 E6        29.96S VSB 3/4 WCI  29
LEXINGTON      CLOUDY    33  32  96 SE9       29.99S FOG     WCI  25
BRADY            N/A     32  30  92 CALM        N/A
GOTHENBURG       N/A     32  31  97 SE5         N/A  WCI  27
CALLAWAY         N/A     32  32 100 S9          N/A  WCI  24
$$

...NORTH PLATTE AREA...

CITY           SKY/WX    TMP DP  RH WIND       PRES   REMARKS
AIRPORT        CLOUDY    33  31  92 SE5       29.97S WCI  29
DOWNTOWN         N/A     33  31  94 CALM        N/A
$$

...SOME WEATHER OBSERVATIONS FROM AROUND THE REGION...

CITY           SKY/WX    TMP DP  RH WIND       PRES   REMARKS
DENVER         PTSUNNY   33  26  75 N7        29.88F WCI  27
LARAMIE        FLURRIES  28  25  88 CALM      29.88R
CHEYENNE       CLOUDY    30  25  81 N10       29.89S WCI  21
SCOTTSBLUFF    LGT SNOW  33  28  81 CALM      29.95R
RAPID CITY     CLOUDY    27  25  92 E9        30.02R WCI  18
PIERRE         CLOUDY    23  22  96 E15       30.14S FOG     WCI  10
WINNER         FOG       26  24  92 NE15      30.09R VSB 1/4 WCI  14
SIOUX FALLS    CLOUDY    26  24  92 NE17      30.14S FOG     WCI  13
OMAHA          LGT RAIN  36  34  92 S10       30.15F WCI  28
GRAND ISLAND   LGT SNOW  32  31  96 S9        30.06S FOG     WCI  24
KANSAS CITY    RAIN      36  36 100 SE8       30.22F FOG     WCI  30
WICHITA        LGT RAIN  36  32  85 S10       30.13F FOG     WCI  28
HAYS           CLOUDY    34  27  75 S8        30.03S WCI  27
LIBERAL        CLOUDY    36  32  87 S18       30.01F WCI  25
GOODLAND       CLOUDY    36  34  92 CALM      29.88F
$$



USA.gov is the U.S. government's official web portal to all federal, state and local government web resources and services.